GFSMA_sfc_thetae_336.txt.gz
Theta_e
328 327 329 326 326 326 326 326 326 326 326 325 325 324 323 323 325 326 328 336 336 336 338 339 341 339 339 341 341 340 340 341 343 344 344 344 343 342 342 343 346 346 347
329 325 328 327 325 326 326 325 324 326 326 326 326 327 326 326 325 326 325 327 337 334 333 335 338 340 337 337 338 336 337 338 339 340 340 340 339 340 341 342 343 347 347
328 327 328 326 325 326 325 322 322 323 323 324 325 322 324 325 325 326 327 328 330 334 330 332 334 332 332 334 335 336 334 335 336 336 336 335 335 337 339 342 342 344 346
329 326 326 326 325 327 323 320 320 320 320 322 321 321 321 325 324 325 327 328 330 330 329 326 326 327 328 325 327 328 334 332 334 336 335 335 335 336 337 337 339 342 344
325 326 325 326 325 324 322 319 319 319 318 319 317 318 322 324 324 323 324 327 329 330 328 326 323 323 325 325 324 326 327 334 333 333 335 336 334 334 334 334 335 336 338
325 326 324 326 323 322 321 320 318 319 318 319 316 317 323 321 324 323 323 324 325 327 327 326 323 322 323 324 326 325 326 330 331 331 331 332 332 331 331 331 331 333 335
325 327 323 323 322 322 320 319 317 315 316 317 314 314 317 321 321 322 323 323 323 324 325 326 325 325 323 324 325 327 328 327 329 330 328 327 328 329 329 329 329 329 330
327 324 326 322 323 320 318 318 316 314 313 315 312 310 309 316 314 321 321 321 322 324 323 325 324 323 324 324 323 326 325 326 325 326 323 324 324 325 329 327 327 328 328
326 327 326 325 323 320 316 317 315 314 310 312 314 312 306 304 309 317 319 319 320 320 322 323 323 322 323 322 324 325 325 326 324 324 325 325 327 326 325 329 328 327 327
327 325 325 324 324 322 319 317 317 316 314 310 311 314 317 314 309 306 315 317 319 319 319 320 320 322 322 322 324 324 325 325 324 324 326 327 327 325 325 327 327 327 326
326 323 325 325 323 320 320 319 319 316 317 313 310 311 312 314 314 309 305 309 315 319 319 320 319 319 321 321 321 322 322 321 320 321 321 321 321 322 323 324 325 326 326
326 325 324 325 324 323 321 320 320 319 318 317 316 314 311 310 310 310 308 309 309 314 318 319 318 318 319 320 323 321 319 318 317 316 317 318 319 320 320 321 321 322 324
324 326 327 325 323 323 322 322 319 320 317 316 316 315 314 312 313 313 311 309 309 313 315 317 319 318 320 320 319 321 320 318 315 313 314 315 316 317 318 318 319 319 319
324 327 326 325 324 323 319 322 320 319 319 317 317 317 314 313 314 314 312 310 307 309 313 311 316 318 319 319 319 317 318 318 315 314 314 314 315 315 316 316 316 316 316
323 325 326 325 324 323 322 323 320 320 319 318 317 317 315 314 314 314 313 314 309 304 306 311 313 317 317 318 318 316 317 318 316 314 314 313 314 314 315 315 315 315 315
327 325 322 324 324 321 320 321 321 320 318 318 315 317 316 316 315 315 314 315 314 310 306 311 313 317 318 319 317 315 317 318 317 316 315 314 313 313 314 313 313 313 313
328 324 323 322 323 320 320 319 321 320 318 318 318 315 315 316 315 315 314 314 313 312 307 310 313 315 314 314 315 316 316 315 315 319 317 315 314 313 313 312 312 312 312
328 325 324 322 320 321 320 319 318 320 318 317 318 318 315 315 316 316 314 313 313 313 310 306 310 311 311 314 314 314 315 315 314 318 318 316 314 313 312 312 311 311 311
328 327 325 323 323 320 318 319 321 319 319 319 319 318 318 317 315 315 315 313 313 312 311 310 308 311 310 313 312 313 314 314 316 319 318 316 315 314 313 312 311 311 309
327 326 326 325 324 323 322 321 319 321 320 319 320 320 319 318 317 316 312 313 312 311 310 309 309 309 309 311 311 309 308 312 311 314 316 314 314 314 313 312 312 312 310
326 326 326 325 325 324 321 322 323 322 321 320 319 320 320 321 319 316 312 311 312 310 310 307 307 308 307 308 307 308 307 308 309 312 311 310 311 311 311 313 312 312 309
327 327 326 324 324 323 316 314 316 321 321 321 319 319 321 321 320 315 314 313 313 311 309 308 308 306 306 307 308 307 308 306 303 310 309 309 311 309 307 306 309 306 305
330 328 326 325 323 324 314 311 311 318 320 321 321 320 320 319 319 319 315 312 312 311 311 310 309 310 309 310 310 308 307 307 307 309 309 306 311 308 309 306 306 305 304
328 327 326 326 325 325 314 311 309 316 321 322 322 321 321 320 320 318 319 317 317 317 314 313 312 313 314 315 313 312 309 309 309 310 311 305 309 306 307 305 305 305 304
328 326 326 326 325 325 314 310 311 320 321 322 323 322 321 321 315 311 317 316 316 316 317 312 309 311 308 307 306 307 306 305 304 305 312 306 305 304 305 303 307 307 304
326 326 324 326 322 326 315 309 310 320 319 320 322 322 314 316 311 307 315 316 314 314 315 317 316 312 307 309 307 308 308 306 306 305 310 304 304 302 299 304 305 305 304

GFSMA_sfc_thetae_339.txt.gz
Theta_e
318 318 319 319 317 319 320 317 318 318 320 320 319 319 318 318 318 318 319 334 335 336 336 337 337 339 339 337 337 339 341 343 344 345 345 346 346 344 345 346 348 348 348
317 318 319 317 317 318 316 315 316 317 317 318 319 318 317 319 317 317 320 322 337 335 333 334 335 338 335 335 336 336 338 339 340 343 344 343 344 343 343 343 346 347 347
318 318 318 318 317 319 315 315 315 316 317 318 316 315 317 320 319 319 322 324 328 333 331 330 330 333 333 332 332 332 334 335 334 337 338 339 341 341 342 343 344 346 347
320 317 317 316 317 317 315 312 312 313 314 314 313 313 314 318 319 319 319 324 324 326 328 329 327 327 328 327 329 329 330 333 333 334 338 336 336 339 341 341 341 341 345
321 316 316 315 316 316 314 313 312 311 311 312 312 313 313 316 317 320 318 321 322 324 323 326 326 323 324 327 324 326 325 327 326 331 334 335 335 336 337 337 337 338 342
320 316 316 314 315 314 313 311 310 312 310 311 313 312 310 315 317 317 318 321 321 321 321 322 320 319 324 325 325 326 326 325 326 333 333 334 333 333 333 334 334 335 337
319 316 315 313 314 312 310 311 310 309 307 310 307 309 309 314 313 318 318 316 317 319 321 320 320 320 319 324 325 326 328 326 326 327 329 327 330 330 331 330 330 331 332
317 317 315 313 314 311 310 309 308 306 305 307 304 303 300 305 311 311 315 315 315 317 319 320 319 319 319 319 323 325 325 326 325 327 325 326 324 326 329 328 329 329 329
318 317 315 315 313 311 309 308 308 307 304 307 307 308 305 299 305 307 310 313 313 313 314 317 318 319 318 318 323 323 324 323 324 324 323 323 326 325 324 326 328 329 328
317 318 316 315 313 311 309 308 311 309 307 303 305 309 311 310 306 301 306 309 312 313 312 314 315 317 317 317 321 323 324 323 322 323 323 322 323 324 326 321 326 328 328
317 318 316 314 312 311 310 309 310 307 307 306 304 305 309 307 310 303 299 304 308 310 313 313 313 313 317 318 319 321 323 322 322 322 323 323 323 323 323 326 323 326 326
315 315 316 314 313 311 311 311 311 309 307 308 307 306 305 308 307 307 302 302 303 307 311 312 312 312 314 317 322 322 320 319 318 317 317 319 320 319 320 321 322 322 323
314 313 314 313 313 313 315 313 311 310 308 307 307 307 306 305 309 310 307 302 301 305 308 310 312 312 316 315 318 321 321 318 316 315 315 315 316 317 318 318 319 319 319
314 315 315 314 314 314 311 313 312 310 311 309 308 307 307 306 305 307 309 307 300 300 304 306 310 311 312 314 318 320 316 319 316 315 315 315 316 316 316 316 317 316 316
318 315 319 315 314 315 315 316 314 313 313 311 311 307 307 307 306 306 307 310 307 299 298 306 308 314 313 312 315 312 313 320 318 316 315 315 315 315 316 316 316 315 315
316 317 317 316 315 316 316 315 315 313 312 312 313 308 308 306 307 308 306 305 307 308 299 303 305 309 311 315 315 311 313 319 320 318 316 315 315 315 314 315 315 314 314
318 317 320 317 317 316 314 313 312 313 314 310 310 311 312 308 307 307 307 305 305 304 300 303 307 308 308 308 311 310 312 311 311 319 320 317 315 315 315 314 314 313 313
317 318 317 318 317 315 315 315 314 315 312 311 311 310 310 313 307 307 306 305 304 305 303 300 303 305 306 308 309 308 311 314 311 317 319 318 316 314 314 313 313 313 312
317 318 318 317 316 317 316 314 314 314 314 312 312 311 311 312 310 308 307 305 305 307 303 302 302 304 307 309 306 307 308 308 311 318 318 318 316 315 314 313 312 311 310
317 317 318 318 318 318 318 317 316 314 314 314 313 313 313 312 311 310 308 305 305 304 303 301 300 301 302 304 304 303 303 303 305 310 314 315 315 316 315 313 313 312 310
318 318 318 318 319 319 320 317 316 315 314 313 314 314 314 315 319 315 311 305 303 304 303 302 301 299 300 300 300 301 300 301 303 304 304 305 308 308 308 313 313 314 312
317 318 319 319 318 320 316 314 315 312 313 314 314 314 315 318 318 317 316 313 308 304 303 302 301 300 300 301 302 301 301 300 298 303 302 303 305 305 309 305 310 310 307
317 319 320 320 320 320 313 311 313 314 312 314 314 315 316 319 316 315 313 313 312 311 310 305 303 304 303 305 304 301 301 300 300 305 303 302 303 304 308 305 307 306 305
318 319 319 320 320 323 313 310 311 316 315 316 317 318 317 316 315 315 315 313 310 311 310 310 308 308 309 312 307 306 304 303 304 303 305 302 302 302 302 301 306 305 304
319 320 320 320 319 322 313 309 311 316 318 318 319 320 319 317 313 309 314 312 312 313 314 310 309 307 306 307 309 304 303 299 298 301 304 305 302 298 300 299 301 307 305
320 321 320 320 319 321 313 309 310 318 312 314 318 319 313 315 310 305 312 310 308 311 312 311 310 308 306 306 306 306 309 303 299 299 302 299 298 297 296 298 300 305 304

GFSMA_sfc_thetae_342.txt.gz
Theta_e
314 316 317 315 315 316 313 312 313 314 315 316 317 316 315 315 317 316 316 332 335 335 335 335 334 336 338 339 338 338 339 342 343 344 346 346 346 346 345 344 346 350 349
314 315 316 314 314 314 313 311 311 312 313 314 315 314 314 315 316 316 320 325 336 334 332 332 333 334 336 336 337 337 336 337 340 343 343 343 344 344 344 344 345 347 347
315 315 314 312 313 313 312 311 312 312 312 313 312 312 313 315 318 318 321 323 325 333 331 330 328 329 331 332 333 333 334 334 334 336 342 342 342 343 343 344 344 345 347
315 314 313 312 314 313 311 310 310 309 309 310 309 309 310 315 317 317 321 322 323 323 327 329 327 326 326 327 328 328 329 331 331 331 335 337 340 341 341 343 343 344 346
316 314 312 312 313 311 310 309 308 307 306 307 309 310 309 314 314 318 318 318 319 320 320 326 328 326 326 326 328 328 328 328 328 329 332 335 336 338 341 341 341 341 343
316 314 312 311 312 309 308 307 306 307 305 306 310 310 308 310 310 313 314 317 317 318 319 319 318 319 328 325 327 327 328 329 327 329 331 333 334 336 338 338 338 339 342
316 314 312 312 312 308 307 307 306 305 305 307 303 306 306 310 312 310 313 313 314 316 317 318 318 317 318 325 325 326 327 328 327 326 323 324 329 334 334 334 335 336 338
315 315 312 311 309 308 306 306 305 304 304 304 301 300 300 303 308 309 309 311 311 313 315 318 317 317 316 317 320 325 324 324 325 326 324 323 324 329 330 330 331 331 331
316 314 313 311 309 308 306 305 305 304 303 304 304 303 299 301 305 306 307 308 309 310 311 313 316 317 316 315 321 322 323 322 326 324 324 324 324 326 325 326 329 329 329
316 315 313 311 310 308 306 307 309 305 303 302 303 306 310 310 304 300 304 305 307 309 309 311 313 315 315 315 320 323 323 322 321 321 321 322 323 323 325 324 324 328 329
314 316 313 312 309 309 308 307 308 305 304 303 302 303 303 303 306 301 298 303 306 308 308 310 311 311 315 316 315 319 323 323 321 320 321 321 321 321 321 325 322 323 327
312 313 314 312 311 309 309 309 309 306 305 304 304 303 302 301 301 300 299 299 300 305 308 309 310 310 312 314 320 323 321 320 319 318 318 319 321 322 320 321 323 321 325
312 312 311 311 310 311 311 310 309 308 307 305 304 304 304 302 303 303 301 300 299 302 305 307 309 310 312 312 316 322 322 319 317 316 316 316 317 318 319 319 320 320 320
313 314 312 312 312 313 313 313 313 309 309 309 305 305 305 304 303 303 302 300 298 298 301 304 307 309 310 311 315 322 316 321 318 317 315 315 316 317 317 318 318 317 317
314 314 314 314 312 313 312 313 312 309 309 309 311 307 305 305 304 304 303 304 301 296 296 302 304 308 310 310 314 313 311 317 320 318 316 316 316 316 317 317 317 317 316
313 314 315 315 313 313 312 311 310 310 309 308 309 308 306 306 304 304 305 303 304 301 297 300 303 305 308 313 313 314 311 318 321 320 319 317 316 316 316 316 316 316 316
314 315 315 315 314 314 313 310 310 310 310 310 309 308 308 308 306 305 305 303 302 302 299 301 303 305 305 306 308 309 310 310 311 318 320 319 317 316 316 316 315 315 314
315 315 315 315 315 315 314 312 311 313 311 311 310 309 308 311 307 306 305 304 303 302 301 299 300 302 303 305 308 306 309 313 310 316 318 318 317 316 314 314 314 314 313
316 315 316 315 315 315 314 314 313 313 312 312 312 310 311 309 307 307 306 305 303 304 302 300 299 300 302 303 303 305 306 306 310 316 317 317 317 316 315 314 313 312 311
315 314 314 315 316 317 316 316 316 314 313 314 313 313 312 310 309 309 308 307 305 302 301 300 299 299 300 302 301 301 301 300 302 307 312 314 315 316 316 314 314 313 310
316 316 315 315 316 316 318 317 318 317 314 314 314 314 314 315 317 315 311 308 304 303 302 300 299 298 298 299 299 299 299 299 301 302 301 303 304 306 309 314 315 316 312
315 315 315 316 317 318 314 313 316 318 317 315 315 316 316 317 318 317 316 316 312 307 303 301 300 299 300 300 300 300 298 297 297 301 300 302 303 302 304 305 310 311 310
314 314 315 316 316 319 312 310 311 316 317 317 316 316 316 319 317 318 316 314 314 311 312 307 305 303 303 304 302 301 299 298 298 301 300 299 300 300 303 306 308 308 307
313 314 315 318 317 320 312 308 308 313 317 317 317 316 316 316 317 315 315 314 314 313 311 311 309 309 308 309 309 309 303 300 300 301 302 297 300 301 300 300 306 306 304
315 317 319 320 319 320 311 308 308 313 314 315 317 316 316 316 312 308 312 311 313 314 314 310 309 307 305 305 309 305 302 299 299 298 300 301 299 297 297 298 300 305 305
317 318 318 318 316 316 311 307 305 310 310 310 312 313 312 311 307 305 308 309 308 311 312 313 311 308 306 307 306 308 309 304 303 298 300 300 296 296 296 296 297 300 304

GFSMA_sfc_thetae_345.txt.gz
Theta_e
313 314 313 313 313 311 310 310 310 311 312 313 314 312 312 313 314 314 315 334 336 334 333 333 334 334 335 337 339 339 339 339 341 342 343 345 345 346 346 346 346 346 349
313 312 312 312 312 311 310 309 309 309 310 311 312 311 312 313 315 318 320 324 334 332 332 331 331 331 332 335 334 336 337 337 337 339 340 342 344 344 346 345 346 345 347
313 312 310 312 311 311 309 309 309 308 308 310 309 310 311 315 317 319 321 321 323 331 331 331 330 330 330 330 331 332 333 334 335 335 336 339 342 343 344 344 345 346 346
314 312 310 310 311 309 308 307 307 306 306 306 306 308 309 314 315 317 318 319 321 321 324 330 329 329 329 329 328 328 329 330 331 331 332 333 335 338 341 342 344 346 346
315 311 310 311 309 308 306 306 306 304 303 304 307 308 308 310 312 316 315 316 316 317 318 325 328 328 328 329 328 329 331 330 330 329 329 331 333 335 337 339 342 344 346
315 311 310 310 308 306 306 305 304 305 304 303 308 308 307 308 309 310 311 314 314 315 316 317 316 318 327 328 327 327 327 329 330 329 327 327 330 332 335 336 340 341 342
314 312 310 310 308 306 304 305 304 303 303 304 303 304 304 306 306 308 308 309 309 312 314 315 316 315 316 325 326 326 326 327 329 327 327 325 325 327 332 334 337 339 340
314 313 310 309 307 305 305 305 303 302 302 303 300 298 298 302 304 308 307 308 308 309 312 314 315 315 314 314 319 325 324 325 326 325 325 326 325 325 328 331 334 335 336
315 312 311 309 307 305 305 304 304 303 301 302 303 301 296 295 301 305 306 306 306 307 308 311 314 315 314 313 318 323 323 320 321 322 322 322 323 326 325 327 328 330 330
314 313 312 310 308 306 305 305 308 303 301 301 302 305 304 304 298 297 302 304 306 307 307 307 310 312 314 313 319 323 324 321 319 320 321 320 319 323 326 325 325 326 328
313 314 312 310 308 307 307 306 306 303 302 301 301 301 300 300 302 299 296 301 303 306 306 307 308 309 311 313 313 317 322 323 321 320 321 322 320 320 322 323 323 323 324
310 312 313 310 309 308 308 308 307 305 304 303 302 302 301 299 299 298 296 297 298 302 305 307 308 309 309 311 318 323 322 320 320 320 319 319 320 321 319 322 322 322 322
310 311 311 310 309 310 310 308 308 307 305 304 304 304 302 301 301 300 298 297 297 300 302 305 307 308 311 310 312 321 322 320 319 318 317 317 318 319 319 318 320 321 321
311 312 311 310 311 311 311 309 308 307 306 306 306 304 304 304 302 301 300 298 296 296 298 302 305 307 308 309 313 322 315 320 320 318 317 316 316 317 317 318 320 319 318
312 312 313 312 312 311 311 309 309 308 307 307 307 307 304 305 304 302 301 301 300 294 295 300 301 305 306 308 311 312 311 316 319 320 318 316 316 317 317 317 318 318 318
312 312 313 312 313 312 311 310 309 308 307 308 307 306 306 305 305 304 302 302 300 299 296 299 301 303 305 308 311 313 312 318 319 320 320 318 317 317 316 316 317 317 317
313 313 314 313 313 313 313 311 309 309 309 309 308 307 308 307 307 305 303 302 301 300 298 300 300 302 303 303 306 306 310 308 309 318 320 319 317 317 316 316 316 316 316
313 313 313 313 314 314 313 312 311 311 311 310 311 309 308 311 307 308 306 304 303 302 300 298 299 300 301 302 303 304 309 310 308 314 318 318 317 316 316 315 314 314 314
314 314 314 313 314 314 313 313 313 313 313 312 312 311 311 311 309 310 308 306 305 305 301 299 300 299 300 301 301 302 303 304 308 315 317 317 317 316 316 315 313 312 311
314 314 313 313 314 314 315 315 316 316 315 316 315 313 314 314 313 312 310 310 309 306 301 300 300 298 299 301 299 299 300 299 301 305 310 313 313 314 315 315 315 314 311
316 315 314 314 315 314 316 316 316 317 317 316 315 316 317 317 318 316 314 312 310 307 305 303 301 297 298 298 298 299 298 298 299 300 300 301 302 303 305 313 316 317 313
314 313 314 314 314 317 314 312 313 314 315 315 316 316 316 318 318 317 317 316 316 309 307 306 304 301 301 299 299 299 298 297 297 299 298 299 301 301 302 303 308 311 311
311 311 312 313 314 315 310 308 309 311 311 313 314 317 316 318 317 318 315 314 314 313 313 312 306 305 303 301 300 299 299 298 297 299 299 298 298 299 301 303 308 307 307
310 311 313 314 313 316 309 306 306 308 309 311 312 312 313 314 315 314 314 313 314 314 313 313 311 309 310 310 305 307 306 303 298 299 300 297 297 298 299 299 305 306 306
313 313 314 314 313 315 308 304 305 308 309 310 311 311 310 311 309 304 309 310 309 312 314 311 309 307 305 305 308 308 305 303 303 298 299 298 298 297 296 297 299 305 304
312 312 312 311 311 309 304 299 302 309 306 307 308 309 308 306 301 300 305 307 305 308 309 311 312 309 307 309 306 310 309 304 302 298 302 300 295 295 295 295 296 298 299